Location: Winthrop
(48.4780°N, 120.1850°W)
Time: 02:06:18
(UTC-07:00)

Transit 2A - Pass Details

Date: 19 June 2024
Orbit: 591 x 960 km, 66.7° (Epoch: 23 July)

Event Time Altitude Azimuth Distance (km) Brightness Sun altitude
Rises 23:41:30 0° 326° (NW) 3,451 10.9 -15.8°
Reaches altitude 10° 23:44:12 10° 336° (NNW) 2,562 10.1 -16.0°
Maximum altitude 23:49:36 33° 39° (NE) 1,514 7.8 -16.3°
Drops below altitude 10° 23:55:14 10° 102° (ESE) 2,683 8.5 -16.5°
Enters shadow 23:56:48 - 108° (ESE) 3,198 8.9 -16.6°
